038  
NZUS93 KARX 281159  
HRRWXR  
 
CURRENT HOURLY OBSERVATIONS ACROSS  
MUCH OF THE UPPER MISSISSIPPI VALLEY  
NATIONAL WEATHER SERVICE LA CROSSE WI  
600 AM CST MON NOV 28 2022  
 
   
..SOUTHEAST MINNESOTA
 
 
 
CITY SKY/WX TMP DP RH WIND PRES REMARKS  
ROCHESTER PTCLDY 22 19 89 S8 29.80F WCI 12  
WINONA PTCLDY 23 23 100 CALM 29.86S  
AUSTIN PTCLDY 21 21 100 SE5 29.79S WCI 15  
ALBERT LEA PTCLDY 25 23 93 SE5 29.78S WCI 19  
DODGE CENTER PTCLDY 21 19 93 SE9 29.78F WCI 11  
PRESTON PTCLDY 20 18 92 SE6 29.82S WCI 13  
OWATONNA PTCLDY 25 21 86 SE9 29.76F WCI 15  
FARIBAULT PTCLDY 27 25 93 S7 29.78S WCI 19  

 
   
..ELSEWHERE IN MINNESOTA
 
 
 
CITY SKY/WX TMP DP RH WIND PRES REMARKS  
MINNEAPOLIS MOCLDY 27 22 81 SE9 29.77F WCI 18  
INTNL FALLS CLOUDY 28 19 69 SE9 29.69F WCI 19  
DULUTH CLOUDY 29 20 69 S12 29.75F WCI 19  
RED WING MOCLDY 27 25 93 SE3 29.81F  
REDWOOD FALLS MOCLDY 26 21 81 SE13 29.65F WCI 15  
MANKATO PTCLDY 25 23 92 SE15 29.74F WCI 13  
WORTHINGTON MOCLDY 29 21 72 S21G26 29.63F WCI 16  
FAIRMONT NOT AVBL  

 
   
..SOUTHWEST WISCONSIN
 
 
 
CITY SKY/WX TMP DP RH WIND PRES REMARKS  
LA CROSSE PTCLDY 22 20 92 SE7 29.86S WCI 13  
PRAIRIE DU CHI CLEAR 21 19 91 CALM 29.86S  
BOSCOBEL CLEAR 16 13 88 CALM 29.88S  
LONE ROCK NOT AVBL  
PLATTEVILLE CLEAR 26 22 86 E9 29.86S WCI 16  
FORT MC COY NOT AVBL  
CAMP DOUGLAS CLEAR 15 11 87 CALM 29.85R  
MAUSTON-NEW LI CLEAR 17 15 94 CALM 29.86S  
VIROQUA CLEAR 21 21 100 E6 29.83S WCI 14  
WIS DELLS CLEAR 17 17 98 CALM 29.87S  

 
   
..ELSEWHERE IN WISCONSIN
 
 
 
CITY SKY/WX TMP DP RH WIND PRES REMARKS  
MILWAUKEE PTCLDY 27 22 81 CALM 29.90R  
MADISON PTCLDY 20 17 88 CALM 29.88R  
GREEN BAY MOCLDY 24 21 88 CALM 29.90S  
EAU CLAIRE NOT AVBL  
BLACK RVR FLS PTCLDY 12 10 91 CALM 29.85F  
MEDFORD MOCLDY 22 20 91 CALM 29.82F  
WAUSAU PTCLDY 20 15 81 E3 29.84F  
WIS RAPIDS PTCLDY 17 14 88 E3 29.87S  
MARSHFIELD PTCLDY 20 17 88 E5 29.84F WCI 13  
RICE LAKE MOCLDY 25 25 100 SE6 29.82F WCI 18  

 
   
..NORTHEAST IOWA
 
 
 
CITY SKY/WX TMP DP RH WIND PRES REMARKS  
WATERLOO CLEAR 15 11 83 CALM 29.84S  
DUBUQUE CLEAR 29 24 82 SE8 29.85S WCI 21  
DECORAH CLEAR 23 23 100 CALM 29.82R  
MASON CITY CLEAR 18 16 92 S8 29.80F WCI 8  
CHARLES CITY PTCLDY 19 19 100 SE8 29.81F FOG WCI 9  
OELWEIN CLEAR 21 19 93 SE7 29.83S WCI 13  

 
   
..ELSEWHERE IN IOWA
 
 
 
CITY SKY/WX TMP DP RH WIND PRES REMARKS  
DES MOINES CLEAR 23 19 85 SE6 29.83F WCI 16  
IOWA CITY CLEAR 21 19 92 CALM 29.87S  
FORT DODGE CLEAR 23 21 92 SE5 29.77F WCI 17  
MARSHALLTOWN CLEAR 15 13 91 E6 29.82F WCI 6  
CEDAR RAPIDS CLEAR 20 18 92 CALM 29.84R  

 
   
..NORTHERN ILLINOIS
 
 
 
CITY SKY/WX TMP DP RH WIND PRES REMARKS  
CHICAGO-OHARE PTCLDY 30 25 81 CALM 29.90R  
CHICAGO-MIDWAY PTCLDY 31 28 89 CALM 29.92R  
MOLINE PTCLDY 27 23 85 CALM 29.87S  
ROCKFORD FOG 24 22 91 CALM 29.92S VSB 1/4  
PEORIA CLOUDY 41 40 96 S3 29.91R  

 
 
NOTE: "FAIR" INDICATES FEW OR NO CLOUDS BELOW 12,000 FEET WITH NO  
SIGNIFICANT WEATHER AND/OR OBSTRUCTIONS TO VISIBILITY. WIND  
SPEEDS ARE IN MILES-PER-HOUR.  
 
 
CLICK HERE TO GO TO PREVIOUS BULLETINS.

The Nexlab WI Page
The Nexlab IA Page
The Nexlab MN Page Main Text Page